Year,Month,Day,Hour,Minute,Value (Times are PST for temperature in C)
2016,12,06,11,21,1.60
2016,12,06,11,22,1.60
2016,12,06,11,23,1.70
2016,12,06,11,24,1.80
2016,12,06,11,25,1.80
2016,12,06,11,26,1.90
2016,12,06,11,27,1.80
2016,12,06,11,28,1.80
2016,12,06,11,29,1.90
2016,12,06,11,30,1.90
2016,12,06,11,31,1.80
2016,12,06,11,32,1.80
2016,12,06,11,33,1.80
2016,12,06,11,34,1.80
2016,12,06,11,35,1.90
2016,12,06,11,36,1.90
2016,12,06,11,37,1.90
2016,12,06,11,38,1.90
2016,12,06,11,39,1.90
2016,12,06,11,40,1.90
2016,12,06,11,41,1.90
2016,12,06,11,42,1.90
2016,12,06,11,43,1.90
2016,12,06,11,44,1.90
2016,12,06,11,45,1.80
2016,12,06,11,46,1.80
2016,12,06,11,47,1.80
2016,12,06,11,48,1.70
2016,12,06,11,49,1.70
2016,12,06,11,50,1.70
2016,12,06,11,51,1.70
2016,12,06,11,52,1.80
2016,12,06,11,53,1.80
2016,12,06,11,54,1.80
2016,12,06,11,55,1.80
2016,12,06,11,56,1.90
2016,12,06,11,57,1.90
2016,12,06,11,58,1.90
2016,12,06,11,59,1.90
2016,12,06,12,00,1.90
2016,12,06,12,01,1.90
2016,12,06,12,02,1.90
2016,12,06,12,03,1.80
2016,12,06,12,04,1.80
2016,12,06,12,05,1.80
2016,12,06,12,06,1.80
2016,12,06,12,07,1.80
2016,12,06,12,08,1.80
2016,12,06,12,09,1.70
2016,12,06,12,10,1.70
2016,12,06,12,11,1.60
2016,12,06,12,12,1.70
2016,12,06,12,13,1.60
2016,12,06,12,14,1.60
2016,12,06,12,15,1.60
2016,12,06,12,16,1.70
2016,12,06,12,17,1.80
2016,12,06,12,18,1.90
2016,12,06,12,19,2.00
2016,12,06,12,20,2.00
2016,12,06,12,21,2.00
2016,12,06,12,22,2.00
2016,12,06,12,23,1.90
2016,12,06,12,24,1.90
2016,12,06,12,25,1.90
2016,12,06,12,26,2.00
2016,12,06,12,27,2.00
2016,12,06,12,28,2.10
2016,12,06,12,29,2.10
2016,12,06,12,30,2.00
2016,12,06,12,31,2.00
2016,12,06,12,32,2.00
2016,12,06,12,33,2.00
2016,12,06,12,34,2.00
2016,12,06,12,35,2.00
2016,12,06,12,36,2.10
2016,12,06,12,37,2.10
2016,12,06,12,38,2.10
2016,12,06,12,39,2.10
2016,12,06,12,40,2.10
2016,12,06,12,41,2.10
2016,12,06,12,42,2.10
2016,12,06,12,43,2.00
2016,12,06,12,44,2.00
2016,12,06,12,45,1.90
2016,12,06,12,46,1.80
2016,12,06,12,47,1.80
2016,12,06,12,48,1.80
2016,12,06,12,49,1.80
2016,12,06,12,50,1.80
2016,12,06,12,51,1.80
2016,12,06,12,52,1.80
2016,12,06,12,53,1.80
2016,12,06,12,54,1.80
2016,12,06,12,55,1.90
2016,12,06,12,56,1.90
2016,12,06,12,57,1.90
2016,12,06,12,58,1.90
2016,12,06,12,59,1.80
2016,12,06,13,00,1.80
2016,12,06,13,01,1.80
2016,12,06,13,02,1.90
2016,12,06,13,03,2.00
2016,12,06,13,04,2.00
2016,12,06,13,05,2.10
2016,12,06,13,06,2.00
2016,12,06,13,07,2.00
2016,12,06,13,08,1.90
2016,12,06,13,09,1.90
2016,12,06,13,10,1.80
2016,12,06,13,11,1.80
2016,12,06,13,12,1.80
2016,12,06,13,13,1.80
2016,12,06,13,14,1.80
2016,12,06,13,15,1.70
2016,12,06,13,16,1.70
2016,12,06,13,17,1.70
2016,12,06,13,18,1.70
2016,12,06,13,19,1.70
2016,12,06,13,20,1.70
2016,12,06,13,21,1.70
2016,12,06,13,22,1.70
2016,12,06,13,23,1.70
2016,12,06,13,24,1.70
2016,12,06,13,25,1.70
2016,12,06,13,26,1.70
2016,12,06,13,27,1.60
2016,12,06,13,28,1.70
2016,12,06,13,29,1.70
2016,12,06,13,30,1.80
2016,12,06,13,31,1.80
2016,12,06,13,32,1.90
2016,12,06,13,33,2.00
2016,12,06,13,34,2.00
2016,12,06,13,35,2.10
2016,12,06,13,36,2.10
2016,12,06,13,37,2.10
2016,12,06,13,38,2.10
2016,12,06,13,39,2.10
2016,12,06,13,40,2.10
2016,12,06,13,41,2.10
2016,12,06,13,42,2.10
2016,12,06,13,43,2.00
2016,12,06,13,44,2.00
2016,12,06,13,45,2.00
2016,12,06,13,46,2.00
2016,12,06,13,47,2.00
2016,12,06,13,48,2.10
2016,12,06,13,49,2.10
2016,12,06,13,50,2.10
2016,12,06,13,51,2.20
2016,12,06,13,52,2.20
2016,12,06,13,53,2.10
2016,12,06,13,54,2.10
2016,12,06,13,55,2.10
2016,12,06,13,56,2.10
2016,12,06,13,57,2.10
2016,12,06,13,58,2.00
2016,12,06,13,59,2.00
2016,12,06,14,00,2.00
2016,12,06,14,01,1.90
2016,12,06,14,02,1.90
2016,12,06,14,03,1.90
2016,12,06,14,04,2.00
2016,12,06,14,05,2.00
2016,12,06,14,06,2.10
2016,12,06,14,07,2.10
2016,12,06,14,08,2.10
2016,12,06,14,09,2.10
2016,12,06,14,10,2.10
2016,12,06,14,11,2.10
2016,12,06,14,12,2.10
2016,12,06,14,13,2.10
2016,12,06,14,14,2.10
2016,12,06,14,15,2.00
2016,12,06,14,16,2.00
2016,12,06,14,17,1.90
2016,12,06,14,18,1.90
2016,12,06,14,19,1.90
2016,12,06,14,20,1.90
2016,12,06,14,21,1.90
2016,12,06,14,22,1.90
2016,12,06,14,23,1.80
2016,12,06,14,24,1.80
2016,12,06,14,25,1.80
2016,12,06,14,26,1.80
2016,12,06,14,27,1.80
2016,12,06,14,28,1.90
2016,12,06,14,29,1.90
2016,12,06,14,30,1.90
2016,12,06,14,31,1.90
2016,12,06,14,32,1.90
2016,12,06,14,33,1.90
2016,12,06,14,34,1.90
2016,12,06,14,35,1.90
2016,12,06,14,36,1.90
2016,12,06,14,37,1.90
2016,12,06,14,38,1.90
2016,12,06,14,39,1.80
2016,12,06,14,40,1.80
2016,12,06,14,41,1.80
2016,12,06,14,42,1.70
2016,12,06,14,43,1.70
2016,12,06,14,44,1.70
2016,12,06,14,45,1.70
2016,12,06,14,46,1.70
2016,12,06,14,47,1.70
2016,12,06,14,48,1.60
2016,12,06,14,49,1.60
2016,12,06,14,50,1.50
2016,12,06,14,51,1.50
2016,12,06,14,52,1.40
2016,12,06,14,53,1.40
2016,12,06,14,54,1.40
2016,12,06,14,55,1.40
2016,12,06,14,56,1.40
2016,12,06,14,57,1.40
2016,12,06,14,58,1.40
2016,12,06,14,59,1.40
2016,12,06,15,00,1.40
2016,12,06,15,01,1.40
2016,12,06,15,02,1.40
2016,12,06,15,03,1.30
2016,12,06,15,04,1.30
2016,12,06,15,05,1.30
2016,12,06,15,06,1.30
2016,12,06,15,07,1.30
2016,12,06,15,08,1.30
2016,12,06,15,09,1.30
2016,12,06,15,10,1.30
2016,12,06,15,11,1.30
2016,12,06,15,12,1.30
2016,12,06,15,13,1.30
2016,12,06,15,14,1.20
2016,12,06,15,15,1.20
2016,12,06,15,16,1.20
2016,12,06,15,17,1.20
2016,12,06,15,18,1.20
2016,12,06,15,19,1.10
2016,12,06,15,20,1.10
2016,12,06,15,21,1.10
2016,12,06,15,22,1.10
2016,12,06,15,23,1.00
2016,12,06,15,24,1.00
2016,12,06,15,25,1.00
2016,12,06,15,26,1.00
2016,12,06,15,27,1.00
2016,12,06,15,28,1.00
2016,12,06,15,29,1.00
2016,12,06,15,30,1.00
2016,12,06,15,31,0.90
2016,12,06,15,32,0.90
2016,12,06,15,33,0.90
2016,12,06,15,34,1.00
2016,12,06,15,35,1.00
2016,12,06,15,36,1.00
2016,12,06,15,37,0.90
2016,12,06,15,38,0.90
2016,12,06,15,39,0.90
2016,12,06,15,40,0.90
2016,12,06,15,41,0.90
2016,12,06,15,42,1.00
2016,12,06,15,43,1.00
2016,12,06,15,44,1.00
2016,12,06,15,45,1.00
2016,12,06,15,46,1.10
2016,12,06,15,47,1.10
2016,12,06,15,48,1.10
2016,12,06,15,49,1.10
2016,12,06,15,50,1.10
2016,12,06,15,51,1.10
2016,12,06,15,52,1.10
2016,12,06,15,53,1.10
2016,12,06,15,54,1.00
2016,12,06,15,55,1.00
2016,12,06,15,56,1.00
2016,12,06,15,57,1.00
2016,12,06,15,58,0.90
2016,12,06,15,59,0.90
2016,12,06,16,00,0.90
2016,12,06,16,01,0.90
2016,12,06,16,02,0.90
2016,12,06,16,03,0.80
2016,12,06,16,04,0.80
2016,12,06,16,05,0.80
2016,12,06,16,06,0.80
2016,12,06,16,07,0.80
2016,12,06,16,08,0.80
2016,12,06,16,09,0.80
2016,12,06,16,10,0.70
2016,12,06,16,11,0.70
2016,12,06,16,12,0.70
2016,12,06,16,13,0.70
2016,12,06,16,14,0.70
2016,12,06,16,15,0.60
2016,12,06,16,16,0.60
2016,12,06,16,17,0.60
2016,12,06,16,18,0.60
2016,12,06,16,19,0.60
2016,12,06,16,20,0.60
2016,12,06,16,21,0.60
2016,12,06,16,22,0.60
2016,12,06,16,23,0.60
2016,12,06,16,24,0.60
2016,12,06,16,25,0.50
2016,12,06,16,26,0.50
2016,12,06,16,27,0.50
2016,12,06,16,28,0.60
2016,12,06,16,29,0.60
2016,12,06,16,30,0.70
2016,12,06,16,31,0.70
2016,12,06,16,32,0.70
2016,12,06,16,33,0.70
2016,12,06,16,34,0.70
2016,12,06,16,35,0.70
2016,12,06,16,36,0.70
2016,12,06,16,37,0.60
2016,12,06,16,38,0.60
2016,12,06,16,39,0.60
2016,12,06,16,40,0.60
2016,12,06,16,41,0.60
2016,12,06,16,42,0.60
2016,12,06,16,43,0.60
2016,12,06,16,44,0.60
2016,12,06,16,45,0.60
2016,12,06,16,46,0.60
2016,12,06,16,47,0.60
2016,12,06,16,48,0.60
2016,12,06,16,49,0.50
2016,12,06,16,50,0.50
2016,12,06,16,51,0.50
2016,12,06,16,52,0.50
2016,12,06,16,53,0.50
2016,12,06,16,54,0.60
2016,12,06,16,55,0.60
2016,12,06,16,56,0.60
2016,12,06,16,57,0.70
2016,12,06,16,58,0.70
2016,12,06,16,59,0.70
2016,12,06,17,00,0.70
2016,12,06,17,01,0.70
2016,12,06,17,02,0.70
2016,12,06,17,03,0.60
2016,12,06,17,04,0.60
2016,12,06,17,05,0.60
2016,12,06,17,06,0.60
2016,12,06,17,07,0.50
2016,12,06,17,08,0.50
2016,12,06,17,09,0.50
2016,12,06,17,10,0.50
2016,12,06,17,11,0.50
2016,12,06,17,12,0.50
2016,12,06,17,13,0.50
2016,12,06,17,14,0.50
2016,12,06,17,15,0.50
2016,12,06,17,16,0.50
2016,12,06,17,17,0.50
2016,12,06,17,18,0.60
2016,12,06,17,19,0.70
2016,12,06,17,20,0.70
2016,12,06,17,21,0.70
2016,12,06,17,22,0.70
2016,12,06,17,23,0.70
2016,12,06,17,24,0.70
2016,12,06,17,25,0.70
2016,12,06,17,26,0.70
2016,12,06,17,27,0.70
2016,12,06,17,28,0.70
2016,12,06,17,29,0.80
2016,12,06,17,30,0.80
2016,12,06,17,31,0.90
2016,12,06,17,32,0.90
2016,12,06,17,33,1.00
2016,12,06,17,34,1.10
2016,12,06,17,35,1.10
2016,12,06,17,36,1.20
2016,12,06,17,37,1.20
2016,12,06,17,38,1.20
2016,12,06,17,39,1.20
2016,12,06,17,40,1.20
2016,12,06,17,41,1.20
2016,12,06,17,42,1.20
2016,12,06,17,43,1.20
2016,12,06,17,44,1.20
2016,12,06,17,45,1.20
2016,12,06,17,46,1.20
2016,12,06,17,47,1.20
2016,12,06,17,48,1.30
2016,12,06,17,49,1.30
2016,12,06,17,50,1.30
2016,12,06,17,51,1.20
2016,12,06,17,52,1.20
2016,12,06,17,53,1.20
2016,12,06,17,54,1.20
2016,12,06,17,55,1.20
2016,12,06,17,56,1.20
2016,12,06,17,57,1.20
2016,12,06,17,58,1.20
2016,12,06,17,59,1.20
2016,12,06,18,00,1.20
2016,12,06,18,01,1.20
2016,12,06,18,02,1.20
2016,12,06,18,03,1.20
2016,12,06,18,04,1.20
2016,12,06,18,05,1.10
2016,12,06,18,06,1.10
2016,12,06,18,07,1.10
2016,12,06,18,08,1.10
2016,12,06,18,09,1.10
2016,12,06,18,10,1.10
2016,12,06,18,11,1.10
2016,12,06,18,12,1.10
2016,12,06,18,13,1.10
2016,12,06,18,14,1.10
2016,12,06,18,15,1.20
2016,12,06,18,16,1.20
2016,12,06,18,17,1.20
2016,12,06,18,18,1.10
2016,12,06,18,19,1.10
2016,12,06,18,20,1.10
2016,12,06,18,21,1.10
2016,12,06,18,22,1.10
2016,12,06,18,23,1.10
2016,12,06,18,24,1.10
2016,12,06,18,25,1.10
2016,12,06,18,26,1.10
2016,12,06,18,27,1.10
2016,12,06,18,28,1.10
2016,12,06,18,29,1.10
2016,12,06,18,30,1.10
2016,12,06,18,31,1.10
2016,12,06,18,32,1.10
2016,12,06,18,33,1.10
2016,12,06,18,34,1.20
2016,12,06,18,35,1.20
2016,12,06,18,36,1.20
2016,12,06,18,37,1.10
2016,12,06,18,38,1.10
2016,12,06,18,39,1.10
2016,12,06,18,40,1.10
2016,12,06,18,41,1.10
2016,12,06,18,42,1.10
2016,12,06,18,43,1.10
2016,12,06,18,44,1.10
2016,12,06,18,45,1.10
2016,12,06,18,46,1.10
2016,12,06,18,47,1.10
2016,12,06,18,48,1.10
2016,12,06,18,49,1.10
2016,12,06,18,50,1.10
2016,12,06,18,51,1.10
2016,12,06,18,52,1.10
2016,12,06,18,53,1.10
2016,12,06,18,54,1.10
2016,12,06,18,55,1.10
2016,12,06,18,56,1.10
2016,12,06,18,57,1.10
2016,12,06,18,58,1.10
2016,12,06,18,59,1.00
2016,12,06,19,00,1.00
2016,12,06,19,01,1.00
2016,12,06,19,02,1.00
2016,12,06,19,03,1.00
2016,12,06,19,04,1.00
2016,12,06,19,05,1.00
2016,12,06,19,06,1.00
2016,12,06,19,07,1.00
2016,12,06,19,08,1.00
2016,12,06,19,09,1.00
2016,12,06,19,10,1.00
2016,12,06,19,11,1.00
2016,12,06,19,12,1.00
2016,12,06,19,13,1.10
2016,12,06,19,14,1.00
2016,12,06,19,15,1.00
2016,12,06,19,16,1.00
2016,12,06,19,17,1.00
2016,12,06,19,18,0.90
2016,12,06,19,19,0.90
2016,12,06,19,20,0.90
2016,12,06,19,21,0.90
2016,12,06,19,22,0.90
2016,12,06,19,23,0.90
2016,12,06,19,24,0.90
2016,12,06,19,25,0.90
2016,12,06,19,26,0.90
2016,12,06,19,27,0.90
2016,12,06,19,28,0.90
2016,12,06,19,29,0.80
2016,12,06,19,30,0.80
2016,12,06,19,31,0.80
2016,12,06,19,32,0.80
2016,12,06,19,33,0.80
2016,12,06,19,34,0.80
2016,12,06,19,35,0.80
2016,12,06,19,36,0.70
2016,12,06,19,37,0.70
2016,12,06,19,38,0.70
2016,12,06,19,39,0.70
2016,12,06,19,40,0.70
2016,12,06,19,41,0.70
2016,12,06,19,42,0.70
2016,12,06,19,43,0.70
2016,12,06,19,44,0.70
2016,12,06,19,45,0.70
2016,12,06,19,46,0.70
2016,12,06,19,47,0.70
2016,12,06,19,48,0.70
2016,12,06,19,49,0.70
2016,12,06,19,50,0.70
2016,12,06,19,51,0.70
2016,12,06,19,52,0.70
2016,12,06,19,53,0.70
2016,12,06,19,54,0.70
2016,12,06,19,55,0.70
2016,12,06,19,56,0.70
2016,12,06,19,57,0.70
2016,12,06,19,58,0.70
2016,12,06,19,59,0.70
2016,12,06,20,00,0.70
2016,12,06,20,01,0.70
2016,12,06,20,02,0.70
2016,12,06,20,03,0.70
2016,12,06,20,04,0.70
2016,12,06,20,05,0.70
2016,12,06,20,06,0.70
2016,12,06,20,07,0.70
2016,12,06,20,08,0.70
2016,12,06,20,09,0.70
2016,12,06,20,10,0.60
2016,12,06,20,11,0.60
2016,12,06,20,12,0.60
2016,12,06,20,13,0.60
2016,12,06,20,14,0.60
2016,12,06,20,15,0.60
2016,12,06,20,16,0.60
2016,12,06,20,17,0.60
2016,12,06,20,18,0.60
2016,12,06,20,19,0.60
2016,12,06,20,20,0.60
2016,12,06,20,21,0.60
2016,12,06,20,22,0.60
2016,12,06,20,23,0.60
2016,12,06,20,24,0.60
2016,12,06,20,25,0.60
2016,12,06,20,26,0.60
2016,12,06,20,27,0.60
2016,12,06,20,28,0.60
2016,12,06,20,29,0.60
2016,12,06,20,30,0.60
2016,12,06,20,31,0.60
2016,12,06,20,32,0.60
2016,12,06,20,33,0.60
2016,12,06,20,34,0.60
2016,12,06,20,35,0.60
2016,12,06,20,36,0.60
2016,12,06,20,37,0.60
2016,12,06,20,38,0.60
2016,12,06,20,39,0.50
2016,12,06,20,40,0.50
2016,12,06,20,41,0.50
2016,12,06,20,42,0.50
2016,12,06,20,43,0.50
2016,12,06,20,44,0.50
2016,12,06,20,45,0.50
2016,12,06,20,46,0.50
2016,12,06,20,47,0.50
2016,12,06,20,48,0.50
2016,12,06,20,49,0.50
2016,12,06,20,50,0.50
2016,12,06,20,51,0.50
2016,12,06,20,52,0.50
2016,12,06,20,53,0.50
2016,12,06,20,54,0.50
2016,12,06,20,55,0.50
2016,12,06,20,56,0.50
2016,12,06,20,57,0.40
2016,12,06,20,58,0.40
2016,12,06,20,59,0.40
2016,12,06,21,00,0.40
2016,12,06,21,01,0.40
2016,12,06,21,02,0.40
2016,12,06,21,03,0.40
2016,12,06,21,04,0.40
2016,12,06,21,05,0.40
2016,12,06,21,06,0.40
2016,12,06,21,07,0.40
2016,12,06,21,08,0.40
2016,12,06,21,09,0.40
2016,12,06,21,10,0.40
2016,12,06,21,11,0.40
2016,12,06,21,12,0.40
2016,12,06,21,13,0.40
2016,12,06,21,14,0.40
2016,12,06,21,15,0.40
2016,12,06,21,16,0.30
2016,12,06,21,17,0.30
2016,12,06,21,18,0.30
2016,12,06,21,19,0.30
2016,12,06,21,20,0.30
2016,12,06,21,21,0.30
2016,12,06,21,22,0.30
2016,12,06,21,23,0.30
2016,12,06,21,24,0.20
2016,12,06,21,25,0.20
2016,12,06,21,26,0.20
2016,12,06,21,27,0.20
2016,12,06,21,28,0.20
2016,12,06,21,29,0.20
2016,12,06,21,30,0.20
2016,12,06,21,31,0.20
2016,12,06,21,32,0.20
2016,12,06,21,33,0.20
2016,12,06,21,34,0.20
2016,12,06,21,35,0.20
2016,12,06,21,36,0.20
2016,12,06,21,37,0.20
2016,12,06,21,38,0.20
2016,12,06,21,39,0.20
2016,12,06,21,40,0.20
2016,12,06,21,41,0.20
2016,12,06,21,42,0.20
2016,12,06,21,43,0.10
2016,12,06,21,44,0.20
2016,12,06,21,45,0.20
2016,12,06,21,46,0.10
2016,12,06,21,47,0.10
2016,12,06,21,48,0.10
2016,12,06,21,49,0.10
2016,12,06,21,50,0.10
2016,12,06,21,51,0.10
2016,12,06,21,52,0.10
2016,12,06,21,53,0.10
2016,12,06,21,54,0.10
2016,12,06,21,55,0.10
2016,12,06,21,56,0.10
2016,12,06,21,57,0.10
2016,12,06,21,58,0.10
2016,12,06,21,59,0.10
2016,12,06,22,00,0.10
2016,12,06,22,01,0.10
2016,12,06,22,02,0.10
2016,12,06,22,03,0.10
2016,12,06,22,04,0.00
2016,12,06,22,05,0.00
2016,12,06,22,06,0.00
2016,12,06,22,07,0.00
2016,12,06,22,08,0.10
2016,12,06,22,09,0.00
2016,12,06,22,10,0.00
2016,12,06,22,11,0.00
2016,12,06,22,12,0.00
2016,12,06,22,13,0.00
2016,12,06,22,14,0.00
2016,12,06,22,15,0.10
2016,12,06,22,16,0.10
2016,12,06,22,17,0.10
2016,12,06,22,18,0.00
2016,12,06,22,19,0.00
2016,12,06,22,20,0.00
2016,12,06,22,21,0.00
2016,12,06,22,22,0.00
2016,12,06,22,23,0.00
2016,12,06,22,24,0.00
2016,12,06,22,25,0.00
2016,12,06,22,26,0.00
2016,12,06,22,27,-0.10
2016,12,06,22,28,-0.10
2016,12,06,22,29,-0.10
2016,12,06,22,30,-0.10
2016,12,06,22,31,-0.10
2016,12,06,22,32,-0.10
2016,12,06,22,33,-0.10
2016,12,06,22,34,-0.10
2016,12,06,22,35,-0.10
2016,12,06,22,36,-0.10
2016,12,06,22,37,-0.20
2016,12,06,22,38,-0.20
2016,12,06,22,39,-0.20
2016,12,06,22,40,-0.20
2016,12,06,22,41,-0.20
2016,12,06,22,42,-0.20
2016,12,06,22,43,-0.20
2016,12,06,22,44,-0.20
2016,12,06,22,45,-0.20
2016,12,06,22,46,-0.20
2016,12,06,22,47,-0.20
2016,12,06,22,48,-0.20
2016,12,06,22,49,-0.20
2016,12,06,22,50,-0.20
2016,12,06,22,51,-0.20
2016,12,06,22,52,-0.20
2016,12,06,22,53,-0.30
2016,12,06,22,54,-0.30
2016,12,06,22,55,-0.30
2016,12,06,22,56,-0.30
2016,12,06,22,57,-0.30
2016,12,06,22,58,-0.30
2016,12,06,22,59,-0.30
2016,12,06,23,00,-0.30
2016,12,06,23,01,-0.30
2016,12,06,23,02,-0.30
2016,12,06,23,03,-0.30
2016,12,06,23,04,-0.30
2016,12,06,23,05,-0.40
2016,12,06,23,06,-0.40
2016,12,06,23,07,-0.40
2016,12,06,23,08,-0.40
2016,12,06,23,09,-0.40
2016,12,06,23,10,-0.40
2016,12,06,23,11,-0.40
2016,12,06,23,12,-0.40
2016,12,06,23,13,-0.40
2016,12,06,23,14,-0.40
2016,12,06,23,15,-0.40
2016,12,06,23,16,-0.40
2016,12,06,23,17,-0.40
2016,12,06,23,18,-0.40
2016,12,06,23,19,-0.40
2016,12,06,23,20,-0.40
2016,12,06,23,21,-0.40
2016,12,06,23,22,-0.40
2016,12,06,23,23,-0.40
2016,12,06,23,24,-0.40
2016,12,06,23,25,-0.40
2016,12,06,23,26,-0.40
2016,12,06,23,27,-0.40
2016,12,06,23,28,-0.40
2016,12,06,23,29,-0.40
2016,12,06,23,30,-0.40
2016,12,06,23,31,-0.40
2016,12,06,23,32,-0.50
2016,12,06,23,33,-0.50
2016,12,06,23,34,-0.50
2016,12,06,23,35,-0.50
2016,12,06,23,36,-0.50
2016,12,06,23,37,-0.50
2016,12,06,23,38,-0.50
2016,12,06,23,39,-0.50
2016,12,06,23,40,-0.50
2016,12,06,23,41,-0.50
2016,12,06,23,42,-0.50
2016,12,06,23,43,-0.50
2016,12,06,23,44,-0.50
2016,12,06,23,45,-0.50
2016,12,06,23,46,-0.50
2016,12,06,23,47,-0.50
2016,12,06,23,48,-0.50
2016,12,06,23,49,-0.50
2016,12,06,23,50,-0.50
2016,12,06,23,51,-0.50
2016,12,06,23,52,-0.50
2016,12,06,23,53,-0.50
2016,12,06,23,54,-0.40
2016,12,06,23,55,-0.50
2016,12,06,23,56,-0.50
2016,12,06,23,57,-0.50
2016,12,06,23,58,-0.50
2016,12,06,23,59,-0.50
